#timestamp,LO_Frequency,Hit 
1498611615.7,286047094.3,N
1498611635.6,286047093.4,N
1498611655.4,286047095.4,N
1498611675.2,286047094.3,N
1498611695.1,286047095.2,N
1498611696.0,286047095.2,N
1498611715.8,286047094.7,N
1498611735.6,286047093.2,N
1498611755.5,286047092.7,N
1498611775.3,286047093.9,N
1498611795.1,286047091.4,N
1498611815.8,286047093.8,N
1498611835.7,286047092.7,N
1498611855.5,286047093.1,N
1498611875.3,286047093.7,N
1498611895.2,286047095.5,N
1498611915.9,286047094.5,N
1498611935.7,286047098.3,N
1498611955.6,286047098.7,N
1498611975.4,286047098.5,N
1498611995.2,286047098.3,N
1498612015.1,286047098.8,N
1498612016.0,286047098.8,N
1498612035.8,286047098.3,N
1498612055.6,286047098.3,N
1498612075.4,286047097.8,N
1498612095.3,286047100.3,N
1498612115.1,286047100.1,N
1498612135.8,286047099.5,N
1498612155.7,286047097.7,N
1498612175.5,286047098.4,N
1498612195.3,286047098.5,N
1498612215.2,286047098.6,N
1498612235.9,286047100.2,N
1498612255.7,286047098.4,N
1498612275.6,286047098.6,N
1498612295.4,286047100.0,N
1498612315.2,286047099.4,N
1498612335.1,286047099.1,N
1498612336.0,286047099.1,N
1498612355.8,286047099.2,N
1498612375.6,286047099.8,N
1498612395.5,286047100.3,N
1498612415.3,286047101.8,N
1498612435.1,286047101.5,N
1498612455.8,286047101.3,N
1498612475.7,286047101.5,N
1498612495.5,286047098.9,N
1498612515.3,286047101.8,N
1498612535.2,286047099.4,N
1498612555.9,286047101.4,N
1498612575.7,286047101.0,N
1498612595.6,286047101.0,N
1498612615.4,286047103.1,N
1498612635.2,286047102.3,N
1498612655.1,286047103.4,N
1498612656.0,286047103.4,N
1498612675.8,286047102.5,N
1498612695.6,286047104.7,N
1498612715.4,286047104.7,N
1498612735.3,286047100.6,N
1498612755.1,286047100.9,N
1498612775.8,286047103.0,N
1498612795.7,286047105.2,N
1498612815.5,286047103.5,N
1498612835.3,286047102.9,N
1498612855.2,286047105.0,N
1498612875.9,286047104.5,N
1498612895.7,286047102.2,N
1498612915.6,286047103.1,N
1498612935.4,286047103.0,N
1498612955.2,286047103.3,N
1498612975.0,286047103.6,N
1498612976.0,286047103.6,N
1498612995.8,286047102.7,N
1498613015.6,286047105.1,N
1498613035.4,286047103.8,N
1498613055.3,286047102.2,N
1498613075.1,286047104.8,N
1498613095.8,286047104.5,N
1498613115.7,286047103.7,N
1498613135.5,286047106.5,N
1498613155.3,286047106.5,N
1498613175.2,286047106.0,N
1498613195.9,286047106.6,N
1498613215.7,286047105.3,N
1498613235.6,286047107.1,N
1498613255.4,286047109.8,N
1498613275.2,286047107.9,N
1498613295.0,286047108.4,N
1498613296.0,286047108.4,N
1498613315.8,286047105.7,N
1498613335.6,286047105.5,N
1498613355.4,286047107.9,N
1498613375.3,286047109.9,N
1498613395.1,286047108.5,N
1498613415.8,286047111.6,N
1498613435.7,286047111.4,N
1498613455.5,286047111.5,N
1498613475.3,286047111.6,N
1498613495.2,286047112.9,N
1498613515.9,286047114.7,N
1498613535.7,286047112.1,N
1498613555.6,286047110.2,N
1498613575.4,286047113.2,N
1498613595.2,286047110.1,N
1498613615.1,286047111.3,N
1498613616.0,286047111.3,N
1498613635.8,286047108.7,N
1498613655.6,286047111.5,N
1498613675.4,286047111.1,N
1498613695.3,286047110.8,N
1498613715.1,286047111.3,N
1498613735.8,286047111.9,N
1498613755.7,286047110.5,N
1498613775.5,286047108.5,N
1498613795.3,286047108.8,N
1498613815.2,286047110.9,N
1498613835.9,286047113.0,N
1498613855.7,286047114.6,N
1498613875.6,286047111.8,N
1498613895.4,286047114.4,N
1498613915.2,286047112.0,N
1498613935.1,286047111.8,N
1498613936.0,286047111.8,N
1498613955.8,286047114.2,N
1498613975.6,286047114.6,N
1498613995.5,286047113.9,N
1498614015.3,286047114.0,N
1498614035.1,286047114.5,N
1498614055.8,286047113.6,N
1498614075.7,286047114.1,N
1498614095.5,286047113.5,N
1498614115.3,286047113.9,N
1498614135.2,286047114.3,N
1498614155.0,286047113.8,N
1498614155.9,286047113.8,N
1498614175.7,286047114.1,N
1498614195.6,286047113.8,N
1498614215.4,286047113.3,N
1498614235.2,286047114.1,N
1498614255.1,286047114.4,N
1498614256.0,286047114.4,N
1498614275.8,286047114.1,N
1498614295.6,286047114.2,N
1498614315.5,286047116.0,N
1498614335.3,286047116.2,N
1498614355.1,286047114.0,N
1498614375.9,286047112.5,N
1498614395.7,286047113.0,N
1498614415.5,286047114.7,N
1498614435.4,286047114.2,N
1498614455.2,286047113.8,N
1498614475.0,286047115.3,N
1498614475.9,286047115.3,N
1498614495.8,286047116.2,N
1498614515.6,286047115.5,N
1498614535.4,286047118.0,N
1498614555.2,286047118.0,N
1498614575.1,286047114.9,N
1498614576.0,286047114.9,N
1498614595.8,286047117.7,N
1498614615.6,286047117.6,N
1498614635.5,286047116.8,N
1498614655.3,286047117.3,N
1498614675.1,286047117.3,N
1498614695.9,286047116.6,N
1498614715.7,286047119.3,N
1498614735.5,286047116.7,N
1498614755.4,286047116.7,N
1498614775.2,286047118.3,N
1498614795.0,286047120.0,N
1498614795.9,286047120.0,N
1498614815.8,286047122.4,N
1498614835.6,286047122.3,N
1498614855.4,286047122.1,N
1498614875.2,286047121.8,N
1498614895.1,286047122.0,N
1498614896.0,286047122.0,N
1498614915.8,286047122.1,N
1498614935.6,286047122.5,N
1498614955.5,286047122.3,N
1498614975.3,286047122.4,N
1498614995.1,286047122.4,N
1498615015.9,286047121.9,N
1498615035.7,286047121.8,N
1498615055.5,286047122.5,N
1498615075.4,286047122.0,N
1498615095.2,286047119.9,N
1498615115.0,286047122.8,N
1498615115.9,286047122.8,N
1498615135.8,286047122.2,N
1498615155.6,286047121.9,N
1498615175.4,286047123.2,N
1498615195.2,286047124.2,N
